User: anonymous   Login
Location: Unspecified
(0.0000°N, 0.0000°E)
Time: 02:47:43
(UTC+00:00)
Language:

DNEPR OBJECT X - Orbit

View from above orbital plane
View from above orbital plane
View from above satellite
View from above satellite

Ground track
Ground track

The orbit data is extracted from the following two-line orbital elements,

1 39437U 13066X   17147.21822170 +.00012450 +00000-0 +44222-3 0  9994
2 39437 097.7108 247.7289 0012406 177.4426 182.6879 15.29106686191863
Epoch (UTC): 27 May 2017 05:14:14
Eccentricity: 0.0012406
inclination: 97.7108°
perigee height: 470 km
apogee height: 487 km
right ascension of ascending node: 247.7289°
argument of perigee: 177.4426°
revolutions per day: 15.29106686
mean anomaly at epoch: 182.6879°
orbit number at epoch: 19186

The dashed part of the orbit path shows where the satellite is in the earth's shadow,  

DLR